Change the Weather History Date:

Tuesday, November 19, 2013

  Actual Average Record
Temperature  
Mean Temperature 34 °F 41 °F  
Max Temperature 45 °F 50 °F 71 °F (2007)
Min Temperature 23 °F 33 °F 18 °F (2014)
Degree Days  
Heating Degree Days 31 24  
Month to date heating degree days 387 372  
Since 1 July heating degree days 776 790  
Cooling Degree Days 0 0  
Month to date cooling degree days 0 0  
Year to date cooling degree days 1079 1048  
Moisture  
Dew Point 26 °F    
Average Humidity 71    
Maximum Humidity 88    
Minimum Humidity 53    
Precipitation  
Precipitation 0.00 in 0.12 in 0.09 in (2004)
Month to date precipitation 0.58 2.15  
Year to date precipitation 31.53 34.63  
Sea Level Pressure  
Sea Level Pressure 30.33 in    
Wind  
Wind Speed 7 mph (East)    
Max Wind Speed 13 mph    
Max Gust Speed 15 mph    
Visibility 10 miles    
Events      
T = Trace of Precipitation, MM = Missing Value Source: NWS Daily Summary

Daily Weather History Graph

Daily Weather History Graph

Search for Another Location

Airport or City:

Trip Planner

Search our weather history database for the weather conditions in past years. The results will help you decide how hot, cold, wet, or windy it might be!

Date:

Astronomy

Nov. 19, 2013 Rise Set
Actual Time 6:45 AM CST 4:36 PM CST
Civil Twilight 6:15 AM CST 5:05 PM CST
Nautical Twilight 5:42 AM CST 5:38 PM CST
Astronomical Twilight 5:10 AM CST 6:10 PM CST
Moon 6:27 PM CST (11/19) 8:24 AM CST (11/19)
Length of Visible Light 10h 49m
Length of Day
9h 51m
Waning Gibbous, 96% of the Moon is Illuminated
Nov 19
Waning Gibbous
Nov 25
Last Quarter
Dec 2
New
Dec 9
First Quarter
Dec 17
Full

Hourly Weather History & Observations

Time (CST) Temp. Windchill Dew Point Humidity Pressure Visibility Wind Dir Wind Speed Gust Speed Precip Events Conditions
12:54 AM 34.0 °F 26.6 °F 26.1 °F 73% 30.31 in 10.0 mi NW 9.2 mph - N/A   Clear
1:54 AM 33.1 °F 25.5 °F 26.1 °F 75% 30.32 in 10.0 mi North 9.2 mph - N/A   Clear
2:54 AM 32.0 °F 26.4 °F 25.0 °F 75% 30.33 in 10.0 mi North 5.8 mph - N/A   Clear
3:54 AM 28.9 °F 22.8 °F 24.1 °F 82% 30.35 in 10.0 mi North 5.8 mph - N/A   Clear
4:54 AM 28.0 °F 21.7 °F 23.0 °F 81% 30.35 in 10.0 mi North 5.8 mph - N/A   Clear
5:54 AM 27.0 °F 21.6 °F 23.0 °F 85% 30.36 in 10.0 mi North 4.6 mph - N/A   Clear
6:54 AM 25.0 °F 18.1 °F 21.0 °F 85% 30.36 in 10.0 mi NE 5.8 mph - N/A   Clear
7:54 AM 30.0 °F 26.5 °F 25.0 °F 82% 30.37 in 10.0 mi NE 3.5 mph - N/A   Clear
8:54 AM 35.1 °F 28.6 °F 27.0 °F 72% 30.38 in 10.0 mi ENE 8.1 mph - N/A   Clear
9:54 AM 37.9 °F 30.5 °F 27.0 °F 65% 30.38 in 10.0 mi East 11.5 mph - N/A   Clear
10:54 AM 39.9 °F 34.5 °F 26.1 °F 58% 30.36 in 10.0 mi East 8.1 mph - N/A   Clear
11:54 AM 42.1 °F 37.1 °F 27.0 °F 55% 30.34 in 10.0 mi East 8.1 mph - N/A   Clear
12:54 PM 43.0 °F 39.5 °F 27.0 °F 53% 30.33 in 10.0 mi SE 5.8 mph - N/A   Clear
1:54 PM 45.0 °F 41.8 °F 28.0 °F 52% 30.31 in 10.0 mi ESE 5.8 mph - N/A   Clear
2:54 PM 43.0 °F 39.5 °F 28.0 °F 56% 30.31 in 10.0 mi SE 5.8 mph - N/A   Clear
3:54 PM 41.0 °F 36.4 °F 28.0 °F 60% 30.31 in 10.0 mi ESE 6.9 mph - N/A   Clear
4:54 PM 37.0 °F 32.4 °F 28.0 °F 70% 30.31 in 10.0 mi East 5.8 mph - N/A   Clear
5:54 PM 32.0 °F 24.8 °F 28.0 °F 85% 30.31 in 10.0 mi East 8.1 mph - N/A   Clear
6:54 PM 32.0 °F 26.4 °F 27.0 °F 82% 30.31 in 10.0 mi ESE 5.8 mph - N/A   Clear
7:54 PM 33.1 °F 25.5 °F 28.0 °F 82% 30.30 in 10.0 mi ESE 9.2 mph - N/A   Clear
8:54 PM 33.1 °F 26.9 °F 28.0 °F 82% 30.29 in 10.0 mi ESE 6.9 mph - N/A   Clear
9:54 PM 30.9 °F 26.2 °F 27.0 °F 85% 30.28 in 10.0 mi ESE 4.6 mph - N/A   Clear
10:54 PM 30.9 °F 24.3 °F 27.0 °F 85% 30.27 in 10.0 mi SE 6.9 mph - N/A   Clear
11:54 PM 32.0 °F 25.6 °F 27.0 °F 82% 30.27 in 10.0 mi SE 6.9 mph - N/A   Clear